FW8566 Weather Reports


time (UTC)temp
F
wind
direction
speed
knots
gust
knots
rain 1hr
in
rain 24hr
in
rain mn
in
humidity
%
barometer
mb
20260506202121 56 204 11.3 13.0 0.00 0.03 0.03 93 1009.3
20260506201619 56 192 17.4 20.0 0.00 0.03 0.03 94 1009.3
20260506201115 56 198 11.3 13.0 0.00 0.03 0.03 94 1009.3
20260506200612 56 201 9.6 10.4 0.00 0.03 0.03 94 1009.3
20260506200109 56 200 9.6 10.4 0.00 0.03 0.03 93 1009.3
20260506195605 56 210 14.8 16.5 0.01 0.03 0.03 93 1009.3
20260506195102 56 292 16.5 17.4 0.01 0.03 0.03 93 1009.3
20260506194559 56 198 17.4 20.0 0.01 0.03 0.03 93 1009.6
20260506194055 56 222 15.6 19.1 0.01 0.03 0.03 93 1009.6
20260506193553 56 192 14.8 15.6 0.01 0.03 0.03 92 1009.6
20260506193050 56 201 14.8 15.6 0.01 0.03 0.03 93 1010.0
20260506192547 56 204 13.0 13.9 0.01 0.03 0.03 93 1010.0
20260506192043 56 218 13.0 13.9 0.01 0.03 0.03 93 1010.0
20260506191539 56 216 11.3 13.9 0.01 0.03 0.03 93 1010.0
20260506191035 56 210 14.8 15.6 0.01 0.03 0.03 94 1010.0
20260506190533 56 180 13.0 13.9 0.01 0.03 0.03 95 1010.0
20260506190030 56 210 13.0 13.9 0.00 0.01 0.01 94 1010.0
20260506185527 56 227 16.5 19.1 0.01 0.01 0.01 93 1010.0
20260506185024 56 201 12.2 13.9 0.00 0.00 0.00 93 1010.0
20260506184521 56 192 13.9 14.8 0.00 0.00 0.00 92 1010.6
20260506184018 56 192 13.0 14.8 0.00 0.00 0.00 90 1010.6
20260506183514 57 212 11.3 12.2 0.00 0.00 0.00 90 1010.6
20260506183011 57 216 15.6 17.4 0.00 0.00 0.00 89 1010.6
20260506182508 57 207 17.4 17.4 0.00 0.00 0.00 88 1010.6
20260506182005 57 219 13.0 13.9 0.00 0.00 0.00 87 1010.6
20260506181503 57 192 10.4 12.2 0.00 0.00 0.00 86 1010.6
20260506181000 57 222 17.4 19.1 0.00 0.00 0.00 86 1010.6
20260506180456 58 216 11.3 13.9 0.00 0.00 0.00 85 1010.6
20260506175953 58 222 15.6 17.4 0.00 0.00 0.00 85 1011.0
20260506175449 58 206 14.8 15.6 0.00 0.00 0.00 85 1011.0
20260506174946 58 240 13.0 14.8 0.00 0.00 0.00 85 1011.0
20260506174444 58 222 13.9 15.6 0.00 0.00 0.00 85 1011.0
20260506173940 58 216 14.8 17.4 0.00 0.00 0.00 85 1011.0
20260506173438 58 192 15.6 18.2 0.00 0.00 0.00 84 1011.0
20260506172934 58 231 15.6 18.2 0.00 0.00 0.00 84 1011.0
20260506172432 58 201 19.1 21.7 0.00 0.00 0.00 85 1011.0
20260506171928 58 215 20.0 20.9 0.00 0.00 0.00 85 1011.0
20260506171426 58 211 19.1 19.1 0.00 0.00 0.00 84 1011.7
20260506170924 59 198 17.4 20.0 0.00 0.00 0.00 84 1011.7
20260506170419 58 207 13.9 15.6 0.00 0.00 0.00 84 1011.7
20260506165913 58 204 17.4 20.0 0.00 0.00 0.00 84 1011.0
20260506165411 59 186 18.2 19.1 0.00 0.00 0.00 84 1011.0
20260506164907 59 192 13.9 16.5 0.00 0.00 0.00 84 1011.0
20260506164403 59 198 18.2 20.0 0.00 0.00 0.00 83 1011.7
20260506163901 59 210 18.2 20.0 0.00 0.00 0.00 83 1011.7
20260506163356 59 233 20.0 23.5 0.00 0.00 0.00 83 1011.7
20260506162851 59 215 13.9 15.6 0.00 0.00 0.00 83 1011.7
20260506162349 59 216 13.0 14.8 0.00 0.00 0.00 83 1011.7
20260506161841 59 216 17.4 18.2 0.00 0.00 0.00 83 1011.7
20260506161338 59 222 11.3 13.0 0.00 0.00 0.00 82 1012.0
20260506160835 60 228 14.8 16.5 0.00 0.00 0.00 82 1012.0
20260506160332 60 201 13.9 15.6 0.00 0.00 0.00 82 1012.0
20260506155830 59 233 9.6 10.4 0.00 0.00 0.00 82 1012.3
20260506155326 59 232 9.6 9.6 0.00 0.00 0.00 82 1012.3
20260506153439 59 207 5.2 6.1 0.00 0.00 0.00 82 1012.3
20260506152937 59 216 7.8 9.6 0.00 0.00 0.00 83 1012.3
20260506152433 59 236 9.6 10.4 0.00 0.00 0.00 81 1012.3
20260506151932 59 263 12.2 13.9 0.00 0.00 0.00 82 1012.3
20260506151428 58 246 7.0 7.8 0.00 0.00 0.00 82 1012.7
20260506150926 59 195 7.8 7.8 0.00 0.00 0.00 82 1012.7
20260506150422 59 245 11.3 12.2 0.00 0.00 0.00 82 1012.7
20260506145919 59 198 9.6 11.3 0.00 0.00 0.00 82 1012.7
20260506145415 59 295 10.4 11.3 0.00 0.00 0.00 82 1012.7
20260506144913 58 265 6.1 6.1 0.00 0.00 0.00 81 1012.7
20260506144409 58 283 6.1 6.1 0.00 0.00 0.00 83 1012.7
20260506143908 59 234 7.8 7.8 0.00 0.00 0.00 83 1012.7
20260506143404 58 226 6.1 7.0 0.00 0.00 0.00 82 1012.7
20260506142903 58 246 9.6 11.3 0.00 0.00 0.00 83 1012.7
20260506142401 58 194 12.2 13.9 0.00 0.00 0.00 84 1012.7
20260506141858 58 234 9.6 10.4 0.00 0.00 0.00 82 1012.7
20260506141356 58 285 7.0 7.8 0.00 0.00 0.00 84 1012.3
20260506140854 58 254 6.1 6.1 0.00 0.00 0.00 84 1012.3
20260506140351 58 238 9.6 10.4 0.00 0.00 0.00 84 1012.3
20260506135848 58 198 6.1 7.0 0.00 0.00 0.00 83 1012.0
20260506135344 58 246 13.9 18.2 0.00 0.00 0.00 82 1012.0
20260506134840 58 207 11.3 13.0 0.00 0.00 0.00 84 1012.0
20260506134337 58 205 16.5 17.4 0.00 0.00 0.00 84 1012.3
20260506133834 59 234 9.6 10.4 0.00 0.00 0.00 84 1012.3
20260506133331 58 222 14.8 16.5 0.00 0.00 0.00 84 1012.3
20260506132828 58 222 13.0 13.9 0.00 0.00 0.00 83 1012.7
20260506132325 58 228 10.4 12.2 0.00 0.00 0.00 85 1012.7
20260506131823 58 240 10.4 11.3 0.00 0.00 0.00 83 1012.7
20260506131319 58 233 7.0 7.8 0.00 0.00 0.00 84 1012.7
20260506130816 58 245 7.8 11.3 0.00 0.00 0.00 84 1012.7
20260506130312 58 244 11.3 12.2 0.00 0.00 0.00 83 1012.7
20260506125811 58 232 7.8 7.8 0.00 0.00 0.00 85 1012.7
20260506125308 58 232 11.3 13.0 0.00 0.00 0.00 84 1012.7
20260506124807 58 288 9.6 10.4 0.00 0.00 0.00 85 1012.7
20260506124303 58 192 13.9 13.9 0.00 0.00 0.00 84 1012.7
20260506123801 58 238 13.0 14.8 0.00 0.00 0.00 85 1012.7
20260506123300 58 201 7.8 9.6 0.00 0.00 0.00 86 1012.7
20260506122756 58 198 7.0 7.0 0.00 0.00 0.00 86 1012.7
20260506122253 58 216 10.4 11.3 0.00 0.00 0.00 86 1012.7
20260506121751 57 210 14.8 15.6 0.00 0.00 0.00 87 1012.7
20260506121248 57 198 13.0 13.9 0.00 0.00 0.00 87 1012.7
20260506120745 57 213 13.0 13.9 0.00 0.00 0.00 87 1012.7
20260506120243 58 198 10.4 11.3 0.00 0.00 0.00 86 1012.7
20260506115740 57 217 6.1 7.8 0.00 0.00 0.00 87 1013.0
20260506115238 57 216 7.0 7.8 0.00 0.00 0.00 87 1013.0
20260506114736 57 198 4.3 4.3 0.00 0.00 0.00 88 1013.0
20260506114233 56 286 5.2 6.1 0.00 0.00 0.00 89 1012.7
20260506113732 56 278 9.6 10.4 0.00 0.00 0.00 89 1012.7
20260506113229 56 192 11.3 13.0 0.00 0.00 0.00 89 1012.7
20260506112725 56 264 5.2 6.1 0.00 0.00 0.00 89 1013.0
20260506112223 56 210 13.0 13.9 0.00 0.00 0.00 90 1013.0
20260506111720 56 192 5.2 5.2 0.00 0.00 0.00 90 1013.0
20260506111218 56 244 9.6 10.4 0.00 0.00 0.00 90 1013.0
20260506110714 56 305 5.2 6.1 0.00 0.00 0.00 91 1013.0
20260506110212 56 210 5.2 6.1 0.00 0.00 0.00 91 1013.0
20260506105709 56 305 7.8 10.4 0.00 0.00 0.00 91 1012.7
20260506105206 55 186 9.6 11.3 0.00 0.00 0.00 91 1012.7
20260506104704 55 213 5.2 6.1 0.00 0.00 0.00 91 1012.7
20260506104201 55 282 7.8 7.8 0.00 0.00 0.00 92 1012.7
20260506103658 55 301 10.4 11.3 0.00 0.00 0.00 92 1012.7
20260506103155 55 276 7.8 7.8 0.00 0.00 0.00 91 1012.7
20260506102653 55 204 16.5 18.2 0.00 0.00 0.00 91 1012.7
20260506102150 55 210 11.3 13.9 0.00 0.00 0.00 91 1012.7
20260506101647 56 201 21.7 24.3 0.00 0.00 0.00 91 1012.7
20260506101144 56 198 11.3 13.0 0.00 0.00 0.00 91 1012.3
20260506100642 56 222 13.0 13.9 0.00 0.00 0.00 91 1012.3
20260506100140 56 217 17.4 19.1 0.00 0.00 0.00 91 1012.3
20260506095638 56 211 11.3 12.2 0.00 0.00 0.00 90 1012.3
20260506095134 56 204 21.7 22.6 0.00 0.00 0.00 91 1012.3
20260506094632 56 227 15.6 18.2 0.00 0.00 0.00 91 1012.3
20260506094130 56 240 9.6 9.6 0.00 0.00 0.00 91 1012.7
20260506093628 56 180 19.1 20.0 0.00 0.00 0.00 91 1012.7
20260506093125 56 218 9.6 11.3 0.00 0.00 0.00 91 1012.7
20260506092623 56 204 15.6 17.4 0.00 0.00 0.00 91 1012.7
20260506092120 56 162 16.5 18.2 0.00 0.00 0.00 91 1012.7
20260506091618 56 237 14.8 16.5 0.00 0.00 0.00 91 1012.7
20260506091115 56 218 13.9 15.6 0.00 0.00 0.00 91 1012.7
20260506090613 56 222 11.3 12.2 0.00 0.00 0.00 90 1012.7
20260506090108 56 212 21.7 23.5 0.00 0.00 0.00 90 1012.7
20260506085606 56 201 5.2 5.2 0.00 0.00 0.00 90 1013.0
20260506085102 57 216 18.2 21.7 0.00 0.00 0.00 89 1013.0
20260506084559 57 222 16.5 18.2 0.00 0.00 0.00 89 1013.0
20260506084055 57 216 9.6 12.2 0.00 0.00 0.00 89 1013.0
20260506083552 57 222 11.3 13.0 0.00 0.00 0.00 89 1013.0
20260506083050 57 204 20.0 21.7 0.00 0.00 0.00 89 1013.0
20260506082546 57 210 13.0 13.9 0.00 0.00 0.00 88 1013.0
20260506082042 57 234 9.6 10.4 0.00 0.00 0.00 88 1013.0
20260506081540 57 236 13.0 16.5 0.00 0.00 0.00 88 1013.0
20260506081037 57 228 6.1 7.0 0.00 0.00 0.00 88 1013.0
20260506080535 57 207 12.2 13.9 0.00 0.00 0.00 88 1013.0
20260506073519 56 198 10.4 11.3 0.00 0.00 0.00 89 1013.0
20260506073016 56 241 7.0 7.0 0.00 0.00 0.00 89 1013.0
20260506072513 56 250 7.8 9.6 0.00 0.00 0.00 89 1013.0
20260506072010 56 226 9.6 10.4 0.00 0.00 0.00 88 1013.0
20260506071508 56 218 11.3 12.2 0.00 0.00 0.00 88 1013.4
20260506071005 56 239 9.6 12.2 0.00 0.00 0.00 88 1013.4
20260506070502 56 243 7.0 7.8 0.00 0.00 0.00 89 1013.4
20260506062439 56 228 6.1 7.0 0.00 0.00 0.00 88 1013.4
20260506061935 56 262 4.3 4.3 0.00 0.00 0.00 88 1013.4
20260506061432 56 275 3.5 3.5 0.00 0.00 0.00 88 1013.4
20260506060930 57 290 5.2 6.1 0.00 0.00 0.00 88 1013.4
20260506060428 57 232 10.4 12.2 0.00 0.00 0.00 88 1013.4
20260506051400 58 238 13.9 14.8 0.00 0.00 0.00 85 1013.7
20260506050857 58 207 17.4 20.0 0.00 0.00 0.00 85 1013.7
20260506050355 58 234 17.4 19.1 0.00 0.00 0.00 84 1013.7
20260506044845 58 204 11.3 12.2 0.00 0.00 0.00 85 1013.7
20260506044343 58 198 9.6 10.4 0.00 0.00 0.00 85 1013.7
20260506043840 58 213 13.9 15.6 0.00 0.00 0.00 84 1013.7
20260506043337 58 238 13.0 14.8 0.00 0.00 0.00 83 1013.7
20260506042835 58 228 13.9 17.4 0.00 0.00 0.00 83 1013.7
20260506042334 57 228 11.3 13.0 0.00 0.00 0.00 84 1013.7
20260506041832 58 222 9.6 11.3 0.00 0.00 0.00 83 1013.7
20260506041329 58 238 11.3 12.2 0.00 0.00 0.00 82 1013.7
20260506040826 58 204 23.5 26.9 0.00 0.00 0.00 82 1013.7
20260506040323 58 238 11.3 13.0 0.00 0.00 0.00 82 1013.7
20260506035820 57 259 10.4 11.3 0.00 0.00 0.00 81 1013.7
20260506035317 57 202 13.9 15.6 0.00 0.00 0.00 82 1013.7
20260506034814 58 227 11.3 14.8 0.00 0.00 0.00 81 1013.7
20260506034311 58 243 11.3 13.0 0.00 0.00 0.00 80 1014.0
20260506033808 57 213 20.0 21.7 0.00 0.00 0.00 82 1014.0
20260506033305 57 248 10.4 11.3 0.00 0.00 0.00 83 1014.0
20260506032802 57 270 11.3 12.2 0.00 0.00 0.00 83 1013.7
20260506032259 57 264 9.6 10.4 0.00 0.00 0.00 83 1013.7
20260506031755 57 268 13.0 13.9 0.00 0.00 0.00 82 1013.7
20260506031253 56 343 5.2 5.2 0.00 0.00 0.00 83 1013.7
20260506030751 56 259 6.1 6.1 0.00 0.00 0.00 83 1013.7
20260506030249 57 268 7.0 7.8 0.00 0.00 0.00 82 1013.7
20260506025745 57 246 9.6 10.4 0.00 0.00 0.00 83 1013.4
20260506025241 56 264 3.5 4.3 0.00 0.00 0.00 82 1013.4
20260506024738 56 228 7.8 9.6 0.00 0.00 0.00 82 1013.4
20260506024235 56 278 7.8 7.8 0.00 0.00 0.00 82 1013.4
20260506023731 56 312 6.1 7.0 0.00 0.00 0.00 82 1013.4
20260506023229 56 310 4.3 5.2 0.00 0.00 0.00 82 1013.4
20260506022725 56 308 4.3 4.3 0.00 0.00 0.00 82 1013.7
20260506022223 56 288 6.1 7.0 0.00 0.00 0.00 81 1013.7
20260506021721 56 305 5.2 6.1 0.00 0.00 0.00 81 1013.7
20260506021218 56 284 7.8 7.8 0.00 0.00 0.00 81 1013.4
20260506020714 56 294 7.0 7.0 0.00 0.00 0.00 81 1013.4
20260506020212 56 283 3.5 4.3 0.00 0.00 0.00 82 1013.4
20260506015710 56 358 1.7 1.7 0.00 0.00 0.00 81 1013.4
20260506015207 56 294 7.8 9.6 0.00 0.00 0.00 81 1013.4
20260506014704 56 336 3.5 3.5 0.00 0.00 0.00 81 1013.4
20260506014200 56 312 6.1 6.1 0.00 0.00 0.00 81 1013.0
20260506013658 56 304 3.5 3.5 0.00 0.00 0.00 81 1013.0
20260506013155 56 298 5.2 5.2 0.00 0.00 0.00 81 1013.0
20260506012651 56 312 5.2 6.1 0.00 0.00 0.00 81 1012.7
20260506012148 56 42 1.7 1.7 0.00 0.00 0.00 81 1012.7
20260506011645 56 306 6.1 6.1 0.00 0.00 0.00 81 1012.7
20260506011141 56 252 5.2 6.1 0.00 0.00 0.00 81 1012.7
20260506010640 56 291 7.0 7.0 0.00 0.00 0.00 81 1012.7
20260506010137 56 287 5.2 6.1 0.00 0.00 0.00 81 1012.7
20260506005633 56 264 10.4 11.3 0.00 0.00 0.00 79 1012.7
20260506005130 56 204 12.2 13.9 0.00 0.00 0.00 79 1012.7
20260506004621 56 244 9.6 10.4 0.00 0.00 0.00 80 1012.7
20260506004118 56 269 7.8 9.6 0.00 0.00 0.00 81 1012.3
20260506003614 56 241 3.5 3.5 0.00 0.00 0.00 80 1012.3
20260506003110 56 263 6.1 7.0 0.00 0.00 0.00 80 1012.3
20260506002606 56 290 5.2 6.1 0.00 0.00 0.00 80 1012.0
20260506002103 57 234 5.2 5.2 0.00 0.00 0.00 80 1012.0
20260506001559 57 282 5.2 6.1 0.00 0.00 0.00 80 1012.0
20260506001056 57 269 5.2 6.1 0.00 0.00 0.00 79 1012.0
20260506000553 57 246 7.8 9.6 0.00 0.00 0.00 79 1012.0
20260506000051 58 227 5.2 5.2 0.00 0.00 0.00 78 1011.7
20260505235549 58 219 13.0 13.9 0.00 0.00 0.00 77 1011.7
20260505235045 59 234 11.3 12.2 0.00 0.00 0.00 77 1011.7
20260505234542 58 217 15.6 19.1 0.00 0.00 0.00 76 1011.7
20260505234039 58 204 13.9 15.6 0.00 0.00 0.00 77 1011.7
20260505233537 58 222 9.6 10.4 0.00 0.00 0.00 78 1011.7
20260505233034 58 228 7.0 7.0 0.00 0.00 0.00 77 1012.0
20260505232532 59 252 13.9 14.8 0.00 0.00 0.00 76 1012.0
20260505232029 59 232 13.9 15.6 0.00 0.00 0.00 76 1012.0
20260505231526 58 204 10.4 11.3 0.00 0.00 0.00 76 1012.0
20260505231025 58 233 7.8 7.8 0.00 0.00 0.00 77 1012.0
20260505230521 58 204 7.8 9.6 0.00 0.00 0.00 76 1012.0
20260505230018 58 230 13.0 14.8 0.00 0.00 0.00 76 1012.0
20260505225515 58 230 7.8 7.8 0.00 0.00 0.00 76 1012.0
20260505225011 59 252 7.8 7.8 0.00 0.00 0.00 76 1012.0
20260505224508 59 249 5.2 6.1 0.00 0.00 0.00 76 1011.7
20260505224005 59 241 7.8 7.8 0.00 0.00 0.00 74 1011.7
20260505223502 59 224 11.3 13.9 0.00 0.00 0.00 75 1011.7
20260505222958 59 207 16.5 17.4 0.00 0.00 0.00 75 1011.3
20260505222455 59 204 9.6 9.6 0.00 0.00 0.00 76 1011.3
20260505221950 58 234 11.3 13.0 0.00 0.00 0.00 76 1011.3
20260505221448 58 199 11.3 13.9 0.00 0.00 0.00 76 1011.3
20260505220945 57 204 7.0 7.0 0.00 0.00 0.00 78 1011.3
20260505220442 57 222 5.2 6.1 0.00 0.00 0.00 78 1011.3
20260505215939 57 227 6.1 6.1 0.00 0.00 0.00 79 1012.0
20260505215438 57 220 7.8 7.8 0.00 0.00 0.00 78 1012.0
20260505214935 58 238 7.8 7.8 0.00 0.00 0.00 78 1012.0
20260505214433 58 220 7.8 7.8 0.00 0.00 0.00 78 1011.7
20260505213929 58 222 9.6 10.4 0.00 0.00 0.00 76 1011.7
20260505213427 59 198 14.8 18.2 0.00 0.00 0.00 75 1011.7
20260505212923 59 241 9.6 10.4 0.00 0.00 0.00 75 1011.3
20260505212421 59 204 11.3 11.3 0.00 0.00 0.00 75 1011.3
20260505211916 58 207 11.3 13.0 0.00 0.00 0.00 75 1011.3
20260505211414 57 190 3.5 3.5 0.00 0.00 0.00 78 1011.3
20260505210910 59 160 6.1 6.1 0.00 0.00 0.00 75 1011.3
20260505210408 58 211 7.0 7.8 0.00 0.00 0.00 77 1011.3
20260505205905 58 186 1.7 1.7 0.00 0.00 0.00 78 1011.0
20260505205403 57 227 4.3 4.3 0.00 0.00 0.00 78 1011.0
20260505204859 57 144 4.3 4.3 0.00 0.00 0.00 79 1011.0
20260505204357 57 168 5.2 5.2 0.00 0.00 0.00 78 1011.3
20260505203855 58 168 4.3 4.3 0.00 0.00 0.00 77 1011.3
20260505203350 61 168 10.4 11.3 0.00 0.00 0.00 72 1011.3
20260505202847 61 222 7.8 7.8 0.00 0.00 0.00 73 1011.0
20260505202343 61 215 7.8 7.8 0.00 0.00 0.00 74 1011.0